Kingstree, SC

9:29 PM EDT on June 25, 2017 (GMT -0400)
Williamsburg County

Weather History for KCKI - February, 2013

Change the Weather History Date:

Friday, February 8, 2013

  Actual Average Record
Temperature  
Mean Temperature 55 °F -  
Max Temperature 62 °F 55 °F 71 °F (2015)
Min Temperature 46 °F 30 °F 30 °F (2016)
Degree Days  
Heating Degree Days 10    
Growing Degree Days 5 (Base 50)    
Moisture  
Dew Point 50 °F    
Average Humidity 88    
Maximum Humidity 100    
Minimum Humidity 63    
Precipitation  
Precipitation 0.08 in - - ()
Sea Level Pressure  
Sea Level Pressure 29.89 in    
Wind  
Wind Speed 8 mph (West)    
Max Wind Speed 14 mph    
Max Gust Speed 21 mph    
Visibility 10 miles    
Events Rain    
Averages and records for this station are not official NWS values.
T = Trace of Precipitation, MM = Missing Value Source: NWS Daily Summary

Daily Weather History Graph

Daily Weather History Graph

Search for Another Location

Airport or City:

Trip Planner

Search our weather history database for the weather conditions in past years. The results will help you decide how hot, cold, wet, or windy it might be!

Date:

Astronomy

Feb. 08, 2013 Rise Set
Actual Time 7:10 AM EST 5:57 PM EST
Civil Twilight 6:44 AM EST 6:23 PM EST
Nautical Twilight 6:14 AM EST 6:52 PM EST
Astronomical Twilight 5:45 AM EST 7:21 PM EST
Moon 5:35 AM EST (2/8) 4:30 PM EST (2/8)
Length of Visible Light 11h 38m
Length of Day
10h 47m
Waning Crescent, 3% of the Moon is Illuminated
Feb 8
Waning Crescent
Feb 10
New
Feb 17
First Quarter
Feb 25
Full
Mar 4
Last Quarter

Hourly Weather History & Observations

Time (EST) Temp. Windchill Dew Point Humidity Pressure Visibility Wind Dir Wind Speed Gust Speed Precip Events Conditions
12:15 AM 53.6 °F - 53.6 °F 100% 29.78 in 7.0 mi NW 10.4 mph - 0.03 in Rain Rain
12:35 AM 51.8 °F - 51.8 °F 100% 29.77 in 7.0 mi NW 11.5 mph - 0.06 in Rain Rain
12:55 AM 51.8 °F - 51.8 °F 100% 29.77 in 7.0 mi NW 9.2 mph 17.3 mph 0.07 in   Drizzle
1:15 AM 51.8 °F - 51.8 °F 100% 29.76 in 10.0 mi NNW 6.9 mph 16.1 mph N/A   Light Drizzle
1:35 AM 51.8 °F - 51.8 °F 100% 29.75 in 10.0 mi North 6.9 mph - N/A Rain Rain
1:55 AM 51.8 °F - 51.8 °F 100% 29.75 in 5.0 mi NW 6.9 mph - N/A   Heavy Drizzle
2:15 AM 51.8 °F - 51.8 °F 100% 29.76 in 10.0 mi NNW 6.9 mph - 0.01 in   Clear
2:35 AM 51.8 °F - 51.8 °F 100% 29.75 in 10.0 mi NW 11.5 mph 16.1 mph 0.01 in   Clear
2:55 AM 51.8 °F - 51.8 °F 100% 29.75 in 10.0 mi NW 9.2 mph - 0.01 in   Clear
3:15 AM 51.8 °F - 51.8 °F 100% 29.75 in 10.0 mi NW 9.2 mph 18.4 mph N/A   Clear
3:35 AM 51.8 °F - 51.8 °F 100% 29.78 in 10.0 mi NW 11.5 mph 16.1 mph N/A   Clear
3:55 AM 51.8 °F - 51.8 °F 100% 29.79 in 10.0 mi NW 10.4 mph 18.4 mph N/A   Clear
4:15 AM 51.8 °F - 50.0 °F 94% 29.80 in 10.0 mi NW 10.4 mph 18.4 mph N/A   Clear
4:55 AM 51.8 °F - 50.0 °F 94% 29.81 in 10.0 mi NW 9.2 mph 16.1 mph N/A   Clear
5:15 AM 50.0 °F - 50.0 °F 100% 29.82 in 10.0 mi NW 8.1 mph - N/A   Clear
5:35 AM 50.0 °F - 50.0 °F 100% 29.82 in 10.0 mi NW 9.2 mph - N/A   Clear
5:55 AM 50.0 °F - 50.0 °F 100% 29.84 in 10.0 mi WNW 9.2 mph - N/A   Clear
6:15 AM 50.0 °F - 50.0 °F 100% 29.84 in 10.0 mi NW 10.4 mph - N/A   Clear
6:35 AM 50.0 °F - 50.0 °F 100% 29.85 in 10.0 mi NW 8.1 mph 16.1 mph N/A   Clear
6:55 AM 50.0 °F - 48.2 °F 94% 29.86 in 10.0 mi NW 8.1 mph - N/A   Clear
7:15 AM 50.0 °F - 48.2 °F 94% 29.86 in 10.0 mi NW 8.1 mph - N/A   Clear
7:35 AM 50.0 °F - 48.2 °F 94% 29.87 in 10.0 mi West 6.9 mph - N/A   Clear
7:55 AM 50.0 °F - 48.2 °F 94% 29.87 in 10.0 mi WNW 3.5 mph - N/A   Clear
8:15 AM 50.0 °F - 50.0 °F 100% 29.89 in 10.0 mi West 5.8 mph - N/A   Clear
8:35 AM 50.0 °F - 50.0 °F 100% 29.90 in 10.0 mi WSW 5.8 mph - N/A   Clear
8:55 AM 50.0 °F - 50.0 °F 100% 29.91 in 10.0 mi West 10.4 mph - N/A   Clear
9:15 AM 51.8 °F - 50.0 °F 94% 29.92 in 10.0 mi West 10.4 mph - N/A   Clear
9:35 AM 50.0 °F - 48.2 °F 94% 29.93 in 10.0 mi West 10.4 mph - N/A   Clear
9:55 AM 50.0 °F - 50.0 °F 100% 29.93 in 10.0 mi WNW 8.1 mph - N/A   Clear
10:15 AM 50.0 °F - 46.4 °F 87% 29.94 in 10.0 mi West 8.1 mph - N/A   Clear
10:35 AM 50.0 °F - 46.4 °F 87% 29.95 in 10.0 mi West 10.4 mph - N/A   Clear
10:55 AM 51.8 °F - 46.4 °F 82% 29.95 in 10.0 mi West 10.4 mph 16.1 mph N/A   Clear
11:15 AM 51.8 °F - 46.4 °F 82% 29.95 in 10.0 mi NW 9.2 mph - N/A   Clear
11:35 AM 51.8 °F - 46.4 °F 82% 29.94 in 10.0 mi West 5.8 mph - N/A   Clear
11:55 AM 53.6 °F - 48.2 °F 82% 29.93 in 10.0 mi WNW 8.1 mph - N/A   Clear
12:15 PM 53.6 °F - 48.2 °F 82% 29.93 in 10.0 mi WSW 8.1 mph - N/A   Clear
12:35 PM 55.4 °F - 50.0 °F 82% 29.93 in 10.0 mi West 9.2 mph - N/A   Clear
12:55 PM 55.4 °F - 50.0 °F 82% 29.93 in 10.0 mi WSW 6.9 mph - N/A   Clear
1:15 PM 57.2 °F - 50.0 °F 77% 29.92 in 10.0 mi West 9.2 mph - N/A   Clear
1:35 PM 59.0 °F - 50.0 °F 72% 29.91 in 10.0 mi West 9.2 mph - N/A   Clear
1:55 PM 59.0 °F - 50.0 °F 72% 29.91 in 10.0 mi West 6.9 mph - N/A   Clear
2:15 PM 60.8 °F - 50.0 °F 68% 29.90 in 10.0 mi WSW 6.9 mph - N/A   Clear
2:35 PM 60.8 °F - 50.0 °F 68% 29.90 in 10.0 mi WSW 10.4 mph - N/A   Clear
2:55 PM 62.6 °F - 50.0 °F 63% 29.89 in 10.0 mi WSW 6.9 mph - N/A   Clear
3:15 PM 62.6 °F - 51.8 °F 68% 29.89 in 10.0 mi SW 9.2 mph 16.1 mph N/A   Clear
3:35 PM 62.6 °F - 50.0 °F 63% 29.89 in 10.0 mi WSW 9.2 mph - N/A   Clear
3:55 PM 62.6 °F - 50.0 °F 63% 29.89 in 10.0 mi WSW 12.7 mph 17.3 mph N/A   Clear
4:15 PM 62.6 °F - 50.0 °F 63% 29.90 in 10.0 mi West 13.8 mph 20.7 mph N/A   Clear
4:35 PM 62.6 °F - 51.8 °F 68% 29.90 in 10.0 mi WSW 6.9 mph - N/A   Clear
4:55 PM 62.6 °F - 51.8 °F 68% 29.91 in 10.0 mi WSW 8.1 mph - N/A   Clear
5:15 PM 60.8 °F - 50.0 °F 68% 29.91 in 10.0 mi SW 6.9 mph - N/A   Clear
5:35 PM 60.8 °F - 51.8 °F 72% 29.92 in 10.0 mi SW 5.8 mph - N/A   Clear
5:55 PM 60.8 °F - 51.8 °F 72% 29.92 in 10.0 mi SW 3.5 mph - N/A   Clear
6:15 PM 59.0 °F - 51.8 °F 77% 29.93 in 10.0 mi SSW 3.5 mph - N/A   Clear
6:35 PM 59.0 °F - 51.8 °F 77% 29.94 in 10.0 mi Calm Calm - N/A   Clear
6:55 PM 59.0 °F - 51.8 °F 77% 29.95 in 10.0 mi Calm Calm - N/A   Clear
7:15 PM 57.2 °F - 51.8 °F 82% 29.95 in 10.0 mi Calm Calm - N/A   Clear
7:35 PM 55.4 °F - 51.8 °F 88% 29.96 in 10.0 mi Calm Calm - N/A   Clear
7:55 PM 55.4 °F - 51.8 °F 88% 29.96 in 10.0 mi Calm Calm - N/A   Clear
8:15 PM 53.6 °F - 51.8 °F 94% 29.97 in 10.0 mi Calm Calm - N/A   Clear
8:35 PM 53.6 °F - 51.8 °F 94% 29.98 in 10.0 mi Calm Calm - N/A   Clear
8:55 PM 53.6 °F - 50.0 °F 88% 29.99 in 10.0 mi West 3.5 mph - N/A   Clear
9:15 PM 53.6 °F - 50.0 °F 88% 30.00 in 10.0 mi WSW 3.5 mph - N/A   Clear
9:55 PM 51.8 °F - 51.8 °F 100% 30.02 in 10.0 mi Calm Calm - N/A   Clear
10:15 PM 50.0 °F - 50.0 °F 100% 30.03 in 10.0 mi Calm Calm - N/A   Clear
10:35 PM 48.2 °F - 48.2 °F 100% 30.03 in 10.0 mi Calm Calm - N/A   Clear
10:55 PM 48.2 °F - 48.2 °F 100% 30.04 in 10.0 mi WNW 3.5 mph - N/A   Clear
11:15 PM 46.4 °F 44.3 °F 46.4 °F 100% 30.05 in 10.0 mi West 4.6 mph - N/A   Clear